WMT758 LATI-LIBD

Flight info

Callsign WMT758
Flight time 0h 30m
Altitude 30000
Route DIRES DCT PAPIZ DCT ENOXA
Aircraft A321/M-SDE3FGHIRWY/LB1

Departure

Time 2026-05-04 09:02
Airport Tirana International Airport Mother Teresa (LATI)

Arrival

Time 2026-05-04 09:32
Airport Bari Karol Wojtyła International Airport (LIBD)
Time Latitude Longitude Altitude Speed Heading
2026-05-04 06:51 41.42106 19.71487 132 ft 0 kts 265°
2026-05-04 08:55 41.42106 19.71488 168 ft 1 kts 265°
2026-05-04 08:55 41.42108 19.71514 129 ft 4 kts 267°
2026-05-04 08:55 41.42104 19.71544 129 ft 4 kts 319°
2026-05-04 08:57 41.42073 19.71558 132 ft 0 kts 354°
2026-05-04 09:01 41.42275 19.71949 123 ft 11 kts 137°
2026-05-04 09:01 41.42192 19.71963 121 ft 19 kts 174°
2026-05-04 09:01 41.41639 19.72035 126 ft 110 kts 174°
2026-05-04 09:01 41.41026 19.72116 136 ft 151 kts 174°
2026-05-04 09:02 41.39927 19.72270 693 ft 158 kts 174°
2026-05-04 09:02 41.38846 19.72416 1490 ft 157 kts 175°
2026-05-04 09:02 41.37759 19.72559 2173 ft 161 kts 174°
2026-05-04 09:02 41.36574 19.72717 2498 ft 183 kts 174°
2026-05-04 09:03 41.35221 19.72899 2818 ft 208 kts 174°
2026-05-04 09:03 41.33712 19.73102 3221 ft 232 kts 174°
2026-05-04 09:03 41.32013 19.73327 3743 ft 257 kts 173°
2026-05-04 09:03 41.30187 19.73566 4460 ft 268 kts 173°
2026-05-04 09:04 41.28303 19.73811 5344 ft 275 kts 174°
2026-05-04 09:04 41.26377 19.74018 6237 ft 281 kts 180°
2026-05-04 09:04 41.24463 19.73430 7006 ft 288 kts 206°
2026-05-04 09:04 41.22881 19.71802 7781 ft 291 kts 232°
2026-05-04 09:05 41.21887 19.69474 8620 ft 292 kts 250°
2026-05-04 09:05 41.21094 19.66961 9492 ft 296 kts 250°
2026-05-04 09:05 41.20292 19.64418 10301 ft 301 kts 250°
2026-05-04 09:05 41.19460 19.61781 10677 ft 321 kts 250°
2026-05-04 09:06 41.18562 19.58940 10939 ft 344 kts 250°
2026-05-04 09:07 41.11578 19.37221 15598 ft 381 kts 251°
2026-05-04 09:08 41.10535 19.33978 16265 ft 384 kts 251°
2026-05-04 09:08 41.09484 19.30717 16953 ft 387 kts 251°
2026-05-04 09:08 41.08419 19.27421 17620 ft 390 kts 251°
2026-05-04 09:08 41.07349 19.24109 18296 ft 393 kts 251°
2026-05-04 09:09 41.06499 19.20691 18884 ft 390 kts 262°
2026-05-04 09:09 41.06132 19.17145 19476 ft 387 kts 272°
2026-05-04 09:09 41.06248 19.13585 19985 ft 384 kts 281°
2026-05-04 09:09 41.06545 19.10066 20145 ft 384 kts 281°
2026-05-04 09:10 41.06838 19.06553 20178 ft 383 kts 281°
2026-05-04 09:10 41.07128 19.03044 20181 ft 383 kts 281°
2026-05-04 09:10 41.07413 18.99537 20179 ft 383 kts 281°
2026-05-04 09:10 41.07696 18.96030 20176 ft 383 kts 281°
2026-05-04 09:11 41.07979 18.92531 20179 ft 382 kts 281°
2026-05-04 09:11 41.08260 18.89054 20177 ft 382 kts 281°
2026-05-04 09:11 41.08543 18.85544 20176 ft 382 kts 281°
2026-05-04 09:11 41.08827 18.82043 20182 ft 382 kts 281°
2026-05-04 09:12 41.09110 18.78539 20181 ft 382 kts 280°
2026-05-04 09:12 41.09390 18.75035 20180 ft 382 kts 280°
2026-05-04 09:14 41.11311 18.50464 20180 ft 383 kts 280°
2026-05-04 09:14 41.11582 18.46951 20169 ft 383 kts 280°
2026-05-04 09:14 41.11855 18.43442 20175 ft 383 kts 280°
2026-05-04 09:14 41.12122 18.39968 19944 ft 373 kts 280°
2026-05-04 09:15 41.12376 18.36585 19695 ft 364 kts 279°
2026-05-04 09:15 41.12625 18.33264 19456 ft 360 kts 279°
2026-05-04 09:15 41.12873 18.29967 19215 ft 359 kts 279°
2026-05-04 09:15 41.13122 18.26672 18975 ft 358 kts 279°
2026-05-04 09:17 41.15053 18.00694 16925 ft 350 kts 279°
2026-05-04 09:18 41.15290 17.97483 16663 ft 349 kts 279°
2026-05-04 09:18 41.15523 17.94282 16409 ft 348 kts 279°
2026-05-04 09:18 41.15752 17.91108 16088 ft 343 kts 279°
2026-05-04 09:18 41.15977 17.87975 15654 ft 339 kts 279°
2026-05-04 09:19 41.16202 17.84861 15213 ft 337 kts 279°
2026-05-04 09:19 41.16421 17.81778 14779 ft 335 kts 278°
2026-05-04 09:19 41.16640 17.78708 14350 ft 333 kts 278°
2026-05-04 09:19 41.16857 17.75655 13905 ft 332 kts 278°
2026-05-04 09:20 41.17071 17.72610 13442 ft 330 kts 278°
2026-05-04 09:20 41.17280 17.69630 13015 ft 327 kts 278°
2026-05-04 09:20 41.17489 17.66642 12587 ft 324 kts 278°
2026-05-04 09:20 41.17698 17.63664 12040 ft 325 kts 278°
2026-05-04 09:21 41.17904 17.60673 11589 ft 324 kts 277°
2026-05-04 09:21 41.18108 17.57709 11162 ft 322 kts 277°
2026-05-04 09:21 41.18313 17.54766 10745 ft 319 kts 277°
2026-05-04 09:21 41.18513 17.51835 10351 ft 316 kts 277°
2026-05-04 09:22 41.18709 17.48981 10225 ft 304 kts 277°
2026-05-04 09:22 41.18898 17.46231 10074 ft 294 kts 277°
2026-05-04 09:22 41.19078 17.43581 9987 ft 282 kts 277°
2026-05-04 09:22 41.19252 17.40981 9518 ft 285 kts 277°
2026-05-04 09:23 41.19425 17.38377 9019 ft 279 kts 277°
2026-05-04 09:23 41.19591 17.35867 8561 ft 267 kts 277°
2026-05-04 09:23 41.19753 17.33453 8127 ft 260 kts 277°
2026-05-04 09:23 41.19914 17.31082 7716 ft 256 kts 277°
2026-05-04 09:25 41.20886 17.16282 5077 ft 215 kts 277°
2026-05-04 09:25 41.21011 17.14339 5029 ft 209 kts 277°
2026-05-04 09:26 41.21136 17.12425 4953 ft 208 kts 277°
2026-05-04 09:26 41.21260 17.10540 4870 ft 207 kts 277°
2026-05-04 09:26 41.21385 17.08631 4774 ft 207 kts 277°
2026-05-04 09:26 41.21417 17.06719 4675 ft 208 kts 266°
2026-05-04 09:27 41.21160 17.04808 4161 ft 210 kts 260°
2026-05-04 09:27 41.20870 17.02925 3779 ft 205 kts 259°
2026-05-04 09:27 41.20583 17.01078 3595 ft 204 kts 259°
2026-05-04 09:27 41.20296 16.99230 3491 ft 204 kts 259°
2026-05-04 09:28 41.19871 16.97426 3297 ft 205 kts 250°
2026-05-04 09:28 41.19379 16.95691 3014 ft 191 kts 250°
2026-05-04 09:28 41.18944 16.94158 2759 ft 169 kts 250°
2026-05-04 09:28 41.18546 16.92758 2539 ft 153 kts 250°
2026-05-04 09:29 41.18181 16.91466 2332 ft 146 kts 250°
2026-05-04 09:29 41.17828 16.90213 2135 ft 144 kts 251°
2026-05-04 09:29 41.17479 16.88968 1945 ft 144 kts 251°
2026-05-04 09:29 41.17131 16.87730 1749 ft 143 kts 251°
2026-05-04 09:30 41.16782 16.86494 1567 ft 143 kts 250°
2026-05-04 09:30 41.16433 16.85263 1372 ft 143 kts 250°
2026-05-04 09:30 41.16083 16.84029 1184 ft 143 kts 250°
2026-05-04 09:30 41.15735 16.82792 998 ft 144 kts 251°
2026-05-04 09:31 41.15383 16.81542 811 ft 146 kts 251°
2026-05-04 09:31 41.15029 16.80272 636 ft 148 kts 251°
2026-05-04 09:31 41.14673 16.78994 452 ft 149 kts 250°
2026-05-04 09:31 41.14328 16.77737 237 ft 146 kts 251°
2026-05-04 09:32 41.13981 16.76507 149 ft 123 kts 249°
2026-05-04 09:32 41.13795 16.75859 151 ft 29 kts 250°
2026-05-04 09:34 41.13595 16.76068 158 ft 12 kts 134°
2026-05-04 09:34 41.13561 16.76168 159 ft 12 kts 92°
2026-05-04 09:34 41.13574 16.76231 159 ft 0 kts 75°
2026-05-04 09:34 41.13567 16.76264 159 ft 6 kts 123°
2026-05-04 09:35 41.13527 16.76286 159 ft 7 kts 160°
2026-05-04 09:35 41.13511 16.76293 159 ft 0 kts 159°